Kezdőlap
METAR-TAF:

METAR-TAF

Repülőterek :

Muscatine, Iowa, Amerikai Egyesült Államok

földrajzi szélesség: 41-22N, földrajzi hosszúság: 091-09W, magasság: 167 m

Jelenlegi meteorológiai megfigyelések

A jelentés 32 perccel ezelõtt készült, 10:55 UTC
Szélcsend
Hőmérséklet 17°C
Páratartalom 100%
Légköri nyomás 1020 hPa
Látótávolság: 11.3 km
Derült ég

METAR: KMUT 211055Z AUTO 00000KT 7SM CLR 17/17 A3013 RMK AO2

Idő: 06:27 (11:27 UTC)


TAF: hiányzik

Meteorológiai megfigyelések és előrejelzések több, mint 4000 repülőtéren (METAR és TAF jelentéseket).

A térképen piros és sárga pontok jelzik az elérhető meteorológiai állomásokat.

Mozgassa az egeret a pont fölött, hogy megjelenjen az állomás neve.

Azután kattintson az időjárási megfigyelések és előrejelzések megtekintéséhez.

A térkép megváltoztatása: kattintson a fekete keresztel jelölt zöld gombra ráközelítéshez, a vonallal jelölt zöld gombra távolításhoz, vagy a zöld nyilakra a szomszédos térképek eléréséhez.


METAR-TAF: